Regional Weather Roundup
Issued by NWS

Home | Current Version | Previous Version | Graphics & Text | Print | Product List | Glossary On
Versions: 1 2 3 4 5 6 7 8 9 10 11 12 13 14 15 16 17 18 19 20 21 22 23 24 25 26 27 28 29 30 31 32 33 34 35 36 37 38 39 40 41 42 43 44 45 46 47 48 49 50
000
ASUS43 KMPX 281310
RWRMN
WEATHER ROUNDUP FOR MINNESOTA
NATIONAL WEATHER SERVICE TWIN CITIES/CHANHASSEN MN
800 AM CDT SUN AUG 28 2016


NOTE: "FAIR" INDICATES FEW OR NO CLOUDS BELOW 12,000 FEET WITH NO
SIGNIFICANT WEATHER AND/OR OBSTRUCTIONS TO VISIBILITY. N/A MEANS
CURRENT SKY AND/OR WEATHER CONDITIONS ARE NOT AVAILABLE.

MNZ060>063-068>070-281400-
   Twin Cities Metro

CITY           SKY/WX    TMP DP  RH WIND       PRES   REMARKS
TWIN CITIES    CLOUDY    63  62  97 SE5       30.16R FOG
ST PAUL        CLOUDY    62  61  96 SE3       30.16R
CRYSTAL        FOG       60  58  92 CALM      30.14R VSB 1/2
BLAINE         FOG       63  63 100 CALM      30.15R VSB 1/4
LAKEVILLE      FOG       57  57 100 CALM      30.16R VSB<1/4
EDEN PRAIRIE   CLOUDY    63  61  93 E3        30.15R FOG
LAKEVILLE      FOG       57  57 100 CALM      30.16R VSB<1/4
SOUTH ST PAUL  CLOUDY    63  62  98 SE3       30.15R FOG
LAKE ELMO      FOG       61  61 100 E3        30.16S VSB 1/4
$$
MNZ001>005-007-008-013>017-022>024-027-028-281400-
   Northwest Minnesota

CITY           SKY/WX    TMP DP  RH WIND       PRES   REMARKS
BEMIDJI        CLOUDY    59  59 100 SE8       30.11R FOG
HALLOCK        SUNNY     61  57  88 SE9       29.99S
ROSEAU         SUNNY     57  52  82 SE5       30.05S
WARROAD        SUNNY     55  52  88 CALM      30.07S
THIEF RVR FALL SUNNY     59  58  96 SE9       30.05R
CROOKSTON      SUNNY     63  61  94 S10       30.02S
FOSSTON        SUNNY     61  59  94 SE7       30.07R
DETROIT LAKES  CLOUDY    61  61 100 SE12      30.08F FOG
MOORHEAD       SUNNY     64  61  88 SE9       30.03S
PARK RAPIDS    FOG       61  59  93 SE8       30.11S VSB 1/2
MAHNOMEN       FAIR      61  60  96 SE9       30.07R
$$
MNZ006-009>011-018-025>026-281400-
   North Central Minnesota

CITY           SKY/WX    TMP DP  RH WIND       PRES   REMARKS
BAUDETTE       FOG       57  57 100 SE6       30.08R VSB<1/4
FLAG ISLAND    SUNNY     64  61  88 S3        30.06R FOG
INTL FALLS     FOG       58  57  97 CALM      30.11S VSB 1/4
WASKISH          N/A     61  61 100 CALM      30.10R FOG
BIG FORK       CLOUDY    59  57  94 S7        30.14R FOG
LONGVILLE      FOG       61  59  94 SE3       30.13S VSB 3/4
GRAND RAPIDS   CLOUDY    59  59 100 S3        30.16R FOG
CRANE LAKE     CLOUDY    54  54 100 CALM      30.15R VSB 3/4
ORR            FOG       55  54  94 CALM      30.12R VSB 1/2
COOK           CLOUDY    55  55 100 S7        30.15R FOG
WALKER         CLOUDY    59  59  97 S6        30.12R
$$
MNZ012-019>021-037-281400-
   Northeast Minnesota

CITY           SKY/WX    TMP DP  RH WIND       PRES   REMARKS
DULUTH         FOG       59  59 100 SW8       30.17R VSB 1/4
ELY            FOG       55  54  94 SW5       30.15R VSB 1/4
HIBBING        FOG       56  56 100 VRB3      30.15R VSB 1
EVELETH        FOG       58  57  99 SW5       30.17R VSB 1
DULUTH HARBOR  CLOUDY    63  59  88 SW8       30.17R
TWO HARBORS    CLOUDY    61  55  82 CALM      30.14R
SILVER BAY     FOG       55  55 100 CALM      30.14R VSB 1/2
GRAND MARAIS     N/A     61  57  87 W5        30.14S
G MARAIS ARPRT SUNNY     55  52  88 CALM      30.16F
$$
MNZ029>031-032-039>041-046>048-054>057-064-281400-
   West Central Minnesota

CITY           SKY/WX    TMP DP  RH WIND       PRES   REMARKS
FERGUS FALLS   CLOUDY    64  63  94 SE8       30.06F
WHEATON        MOSUNNY   64  63  94 SE9       30.05S
MORRIS         CLOUDY    63  61  94 SE9G18    30.05S
ALEXANDRIA     CLOUDY    63  62  97 E7        30.11R
ELBOW LAKE     FAIR      62  61  96 SE8       30.06S
WADENA         CLOUDY    61  61 100 SE6       30.10S FOG
GLENWOOD       CLOUDY    63  63 100 N3        30.11R
APPLETON       TSTM      64  61  88 S16G22    30.06F
BENSON         TSTM      63  59  88 S9        30.07F
ORTONVILLE     CLOUDY    63  59  88 SE7       30.06R
MADISON        CLOUDY    64  63  94 SE13      30.08R
WILLMAR        FAIR      63  63 100 SE3       30.12R
$$
MNZ033>034-036-042>043-049>051-058-059-281400-
   Central Minnesota

CITY           SKY/WX    TMP DP  RH WIND       PRES   REMARKS
ST CLOUD       LGT RAIN  60  60 100 SE9       30.12S VSB 1/2
SAUK CENTRE    LGT RAIN  62  61  97 E5        30.11R
PAYNESVILLE    RAIN      62  62 100 SE12      30.12S
AITKIN         CLOUDY    64  59  82 E3        30.12F HAZE
PINE RIVER     FOG       61  61 100 SE5       30.15S VSB 1/2
BRAINERD       FOG       61  61 100 CALM      30.13R VSB 1/2
STAPLES        CLOUDY    61  59  94 CALM      30.12R FOG
LONG PRAIRIE   CLOUDY    61  59  94 CALM      30.13R FOG
LITTLE FALLS   LGT RAIN  61  59  94 SE6       30.13R
LITCHFIELD     DRIZZLE   63  63 100 SE5       30.14F
BUFFALO        CLOUDY    60  58  94 CALM      30.16R FOG
MAPLE LAKE     CLOUDY    62  62  99 CALM      30.16R FOG
HUTCHINSON     RAIN      63  63 100 CALM      30.17R
$$
MNZ037-044-045-052-053-281400-
   East Central Minnesota

CITY           SKY/WX    TMP DP  RH WIND       PRES   REMARKS
PRINCETON      LGT RAIN  61  61 100 CALM      30.14F VSB 3/4
MORA           LGT RAIN  61  61 100 CALM      30.16F
CAMBRIDGE      FOG       61  59  94 CALM      30.14R VSB 1/2
RUSH CITY      LGT RAIN  59  58  97 CALM      30.16R
MOOSE LAKE     CLOUDY    61  59  94 CALM      30.15R FOG
HINCKLEY       LGT RAIN  61  61 100 CALM      30.16R
CLOQUET        FOG       59  57  94 CALM      30.16S VSB 1/2
MCGREGOR       CLOUDY    61  59  94 CALM      30.15S VSB 1/2
$$
MNZ071>073-080-081-089-090-097-098-281400-
   Southwest Minnesota

CITY           SKY/WX    TMP DP  RH WIND       PRES   REMARKS
MONTEVIDEO     CLOUDY    64  64 100 N7        30.11R THUNDER
GRANITE FALLS  CLOUDY    67  64  90 E7        30.11S
CANBY          MOSUNNY   66  64  93 E8        30.10R FOG
MARSHALL       SUNNY     64  62  93 SE8       30.11F
REDWOOD FALLS  CLOUDY    65  62  90 SE5       30.13S
OLIVIA         CLOUDY    63  61  94 E7        30.12F
PIPESTONE      SUNNY     66  64  94 S7        30.10S
WINDOM         SUNNY     66  64  94 CALM      30.12S FOG
WORTHINGTON    SUNNY     65  64  97 CALM      30.13R FOG
JACKSON          N/A     64  63  94 S6        30.12F FOG
TRACY          CLOUDY    62  62  99 NE3       30.13F FOG
SLAYTON        SUNNY     59  59 100 S3        30.12S
$$
MNZ065>067-074>077-082>085-091>093-281400-
   South Central Minnesota

CITY           SKY/WX    TMP DP  RH WIND       PRES   REMARKS
MANKATO        SUNNY     63  61  94 SE6       30.15R
NEW ULM          N/A     63  63 100 SE5       30.13R FOG
ST JAMES       SUNNY     59  57  94 CALM      30.13S FOG
FAIRMONT       SUNNY     65  64  97 S6        30.13R
GLENCOE        CLOUDY    61  62 100 NW6       30.16R FOG
FARIBAULT      PTSUNNY   63  63 100 CALM      30.16R FOG
OWATONNA       MOSUNNY   64  63  94 SE3       30.16S FOG
WASECA         MOSUNNY   63  61  94 SE6       30.16S FOG
ALBERT LEA     PTSUNNY   64  64 100 CALM      30.17R FOG
$$
MNZ078>079-086>088-094>096-281400-
   Southeast Minnesota

CITY           SKY/WX    TMP DP  RH WIND       PRES   REMARKS
ROCHESTER      FOG       62  62 100 S5        30.18R VSB 1/4
RED WING       DRZL/FOG  64  64 100 CALM      30.15S VSB<1/4
STANTON        CLOUDY    59  59 100 N3        30.15R VSB<1/4
DODGE CENTER   PTSUNNY   64  63  94 S3        30.18R FOG
WINONA         FOG       64  64 100 CALM      30.18R VSB 1/2
AUSTIN         FOG       63  63 100 CALM      30.17R VSB<1/4
PRESTON        FOG       61  60  96 CALM      30.19R VSB<1/4
$$
ABBREVIATIONS USED IN REMARKS
   TC - TEMPERATURES IN CELSIUS
  WCI - WIND CHILL INDEX
   HX - HEAT INDEX
  VSB - VISIBILITY
$$



USA.gov is the U.S. government's official web portal to all federal, state and local government web resources and services.